Abilene Dyess, TX

11:22 AM CDT on October 21, 2017 (GMT -0500)
Dyess Air Force Base

Weather History for KDYS - May, 2013

Change the Weather History Date:

Sunday, May 12, 2013

  Actual Average Record
Temperature  
Mean Temperature 64 °F -  
Max Temperature 80 °F 85 °F 98 °F (1998)
Min Temperature 50 °F 61 °F 46 °F (2008)
Growing Degree Days 14 (Base 50)    
Moisture  
Dew Point 44 °F    
Average Humidity 47    
Maximum Humidity 81    
Minimum Humidity 27    
Precipitation  
Precipitation 0.00 in - - ()
Sea Level Pressure  
Sea Level Pressure 30.14 in    
Wind  
Wind Speed 5 mph (SSE)    
Max Wind Speed 12 mph    
Max Gust Speed -    
Visibility 10 miles    
Events      
Averages and records for this station are not official NWS values.
T = Trace of Precipitation, MM = Missing Value Source: NWS Daily Summary

Daily Weather History Graph

Daily Weather History Graph

Search for Another Location

Airport or City:

Trip Planner

Search our weather history database for the weather conditions in past years. The results will help you decide how hot, cold, wet, or windy it might be!

Date:

Astronomy

May. 12, 2013 Rise Set
Actual Time 6:43 AM CDT 8:28 PM CDT
Civil Twilight 6:16 AM CDT 8:55 PM CDT
Nautical Twilight 5:43 AM CDT 9:28 PM CDT
Astronomical Twilight 5:09 AM CDT 10:02 PM CDT
Moon 8:41 AM CDT (5/12) 10:55 PM CDT (5/12)
Length of Visible Light 14h 39m
Length of Day
13h 45m
Waxing Crescent, 7% of the Moon is Illuminated
May 12
Waxing Crescent
May 17
First Quarter
May 24
Full
May 31
Last Quarter
Jun 8
New

Hourly Weather History & Observations

Time (CDT) Temp. Dew Point Humidity Pressure Visibility Wind Dir Wind Speed Gust Speed Precip Events Conditions
12:58 AM 58.1 °F 41.4 °F 54% 30.13 in 10.0 mi Calm Calm - N/A   Clear
1:58 AM 59.9 °F 41.4 °F 50% 30.13 in 10.0 mi NNE 4.6 mph - N/A   Clear
2:58 AM 58.3 °F 42.4 °F 56% 30.13 in 10.0 mi NNE 4.6 mph - N/A   Clear
3:58 AM 53.4 °F 43.2 °F 68% 30.13 in 10.0 mi SSW 2.3 mph - N/A   Clear
4:58 AM 51.3 °F 42.3 °F 71% 30.15 in 10.0 mi NW 4.6 mph - N/A   Clear
5:58 AM 52.2 °F 44.1 °F 74% 30.16 in 10.0 mi West 3.5 mph - N/A   Clear
6:58 AM 50.0 °F 44.2 °F 81% 30.18 in 10.0 mi Calm Calm - N/A   Clear
7:58 AM 55.2 °F 47.8 °F 76% 30.20 in 10.0 mi NW 4.6 mph - N/A   Clear
8:58 AM 60.8 °F 47.7 °F 62% 30.21 in 10.0 mi ESE 6.9 mph - N/A   Clear
9:58 AM 66.6 °F 42.1 °F 41% 30.21 in 10.0 mi SE 11.5 mph - N/A   Clear
10:58 AM 69.8 °F 43.5 °F 39% 30.20 in 10.0 mi SE 8.1 mph - N/A   Clear
11:58 AM 74.3 °F 44.8 °F 35% 30.19 in 10.0 mi SE 9.2 mph - N/A   Clear
12:36 PM 75.2 °F 44.6 °F 34% 30.27 in 10.0 mi South 11.5 mph - N/A   Clear
12:58 PM 75.6 °F 45.7 °F 35% 30.17 in 10.0 mi Variable 2.3 mph - N/A   Clear
1:58 PM 77.5 °F 45.7 °F 32% 30.15 in 10.0 mi NE 1.2 mph - N/A   Partly Cloudy
2:58 PM 78.8 °F 44.8 °F 30% 30.12 in 10.0 mi SSW 4.6 mph - N/A   Mostly Cloudy
3:58 PM 79.2 °F 43.7 °F 28% 30.11 in 10.0 mi Variable 1.2 mph - N/A   Mostly Cloudy
4:58 PM 79.9 °F 42.8 °F 27% 30.09 in 10.0 mi SSE 5.8 mph - N/A   Partly Cloudy
5:58 PM 79.3 °F 43.2 °F 28% 30.07 in 8.0 mi SSE 10.4 mph - N/A   Scattered Clouds
6:58 PM 78.1 °F 43.0 °F 29% 30.06 in 10.0 mi South 9.2 mph - N/A   Clear
7:58 PM 77.2 °F 43.9 °F 31% 30.06 in 10.0 mi South 8.1 mph - N/A   Clear
8:58 PM 71.2 °F 45.5 °F 40% 30.08 in 10.0 mi South 8.1 mph - N/A   Clear
9:58 PM 65.3 °F 45.5 °F 49% 30.10 in 10.0 mi South 6.9 mph - N/A   Clear
10:58 PM 66.6 °F 45.9 °F 47% 30.11 in 10.0 mi South 10.4 mph - N/A   Clear
11:56 PM 66.2 °F 44.6 °F 46% 30.20 in 10.0 mi South 11.5 mph - N/A   Clear